"Pseudo-MPEC" for MHO07B4

Created 2024 Nov 17 3:31:04 UT using Find_Orb

Click here for an explanation of pseudo-MPECs

 
 Astrometry: 
     MHO07B4 1C2009 03 18.34770 12 38 06.46 +23 35 40.0    ~BGC2 21.8 VrNEOCPG96
     MHO07B4 1C2009 03 18.35436 12 38 05.92 +23 35 40.0    ~BGC2 21.8 VrNEOCPG96
     MHO07B4 1C2009 03 18.36123 12 38 05.38 +23 35 40.2    ~BGC2 22.3 VrNEOCPG96
     MHO07B4 1C2009 03 18.36809 12 38 04.88 +23 35 39.7    ~BGC2 21.3 VrNEOCPG96
     MHO07B4  C2011 09 19.49333 01 20 51.248-20 50 44.02   ~BGC2 20.0 rLNEOCPF51
     MHO07B4  C2011 09 19.50489 01 20 50.086-20 50 38.86   ~BGC2 20.1 rLNEOCPF51
     MHO07B4  C2011 09 19.51839 01 20 48.736-20 50 32.49   ~BGC2 20.1 iLNEOCPF51
     MHO07B4  C2011 09 19.53093 01 20 47.476-20 50 26.73   ~BGC2 19.9 iLNEOCPF51
     MHO07B4 5C2014 04 29.13544 14 16 50.97 -31 14 01.0    ~BGC2 21.9   NEOCPW84
     MHO07B4 5C2014 04 29.13867 14 16 50.72 -31 14 01.3    ~BGC2        NEOCPW84
     MHO07B4 5C2014 04 29.14191 14 16 50.44 -31 14 01.8    ~BGC2        NEOCPW84
     MHO07B4 5C2014 04 29.14513 14 16 50.17 -31 14 02.3    ~BGC2        NEOCPW84
     MHO07B4 5C2014 04 29.14840 14 16 49.90 -31 14 02.7    ~BGC2        NEOCPW84
     MHO07B4 5C2014 05 02.14689 14 12 47.05 -31 19 55.4    ~BGC2 22.1   NEOCPW84
     MHO07B4 5C2014 05 02.15338 14 12 46.51 -31 19 56.1    ~BGC2        NEOCPW84
     MHO07B4 5C2014 05 02.15662 14 12 46.23 -31 19 56.5    ~BGC2        NEOCPW84
     MHO07B4 5C2014 05 02.15986 14 12 45.97 -31 19 56.8    ~BGC2        NEOCPW84
     MHO07B4  C2021 01 05.45081008 59 15.716+75 03 32.91   ~BGC2 21.31iUNEOCPF51
     MHO07B4  C2021 01 05.46381808 59 13.474+75 03 38.42   ~BGC2 21.05iUNEOCPF51
     MHO07B4  C2021 01 05.48978008 59 09.040+75 03 50.08   ~BGC2 21.28iUNEOCPF51
     MHO07B4  C2022 02 25.55741213 56 07.806-00 58 25.05   ~BGC2 22.29wUNEOCPF52
     MHO07B4  C2022 02 25.57019313 56 07.433-00 58 26.05   ~BGC2 22.44wUNEOCPF52
     MHO07B4  C2022 02 25.58299313 56 07.047-00 58 27.45   ~BGC2 22.31wUNEOCPF52
     MHO07B4  C2022 02 25.59570613 56 06.679-00 58 28.48   ~BGC2 22.44wUNEOCPF52
     MHO07B4 1C2024 09 05.44187 04 16 55.30 +32 44 30.0    ~BFKH       VNEOCPG96
     MHO07B4 1C2024 09 05.44701 04 16 55.60 +32 44 36.8    ~BFKH       VNEOCPG96
     MHO07B4 1C2024 09 05.45215 04 16 55.85 +32 44 44.0    ~BFKH       VNEOCPG96
     MHO07B4 1C2024 09 27.40679 04 33 54.68 +41 33 10.5    ~BFKH 20.8 GVNEOCPG96
     MHO07B4 1C2024 09 27.41300 04 33 54.84 +41 33 19.3    ~BFKH 20.2 GVNEOCPG96
     MHO07B4 1C2024 09 27.42546 04 33 55.12 +41 33 38.9    ~BFKH       VNEOCPG96
     MHO07B4*KC2024 10 08.23647 04 36 08.724+46 17 13.56   ~A8A7 20.0 GVNEOCPW16
     MHO07B4 KC2024 10 08.24171 04 36 08.746+46 17 22.92   ~A8A7 19.6 GVNEOCPW16
     MHO07B4 KC2024 10 08.24696 04 36 08.621+46 17 30.05   ~A8A7 18.7 GVNEOCPW16
     MHO07B4 KC2024 10 08.25228 04 36 08.650+46 17 38.80   ~A8A7 19.9 GVNEOCPW16
     MHO07B4 KB2024 10 08.94732 04 36 05.51 +46 36 10.5    ~A9AM 20.2 GXNEOCPM45
     MHO07B4 KB2024 10 08.95315 04 36 05.49 +46 36 20.0    ~A9AM 20.5 GXNEOCPM45
     MHO07B4 KB2024 10 08.95899 04 36 05.44 +46 36 29.3    ~A9AM 20.0 GXNEOCPM45
     MHO07B4 KC2024 10 09.21819 04 36 03.938+46 43 25.57   ~A987x20.7 GVNEOCPW16
     MHO07B4 KC2024 10 09.22669 04 36 03.936+46 43 38.42   ~A987 20.8 GVNEOCPW16
     MHO07B4 KC2024 10 09.23481 04 36 04.015+46 43 51.46   ~A987 20.0 GVNEOCPW16
     MHO07B4 KC2024 10 09.33865204 36 03.24 +46 46 38.1    ~A9Aq 20.1 GXNEOCP858
     MHO07B4 KC2024 10 09.34566504 36 03.19 +46 46 50.0    ~A9Aq 19.9 GXNEOCP858
     MHO07B4 KC2024 10 09.35255004 36 03.06 +46 47 00.3    ~A9Aq 20.3 GXNEOCP858
     MHO07B4 KC2024 10 09.36090904 36 02.88 +46 47 13.8    ~A99M 21.3 GVNEOCPH21
     MHO07B4 KC2024 10 09.36370604 36 02.85 +46 47 18.4    ~A99M 21.8 GVNEOCPH21
     MHO07B4 KC2024 10 09.36650504 36 02.84 +46 47 23.2    ~A99M 21.3 GVNEOCPH21
     MHO07B4 0C2024 10 10.44393 04 35 53.59 +47 16 09.4    ~BGF2       VNEOCPU94
     MHO07B4 0C2024 10 10.45066 04 35 53.55 +47 16 19.7    ~BGF2 21.4 GVNEOCPU94

Station data:
(858) Tebbutt Observatory, Edgewood  (N35.093869 W106.220000)  US/New Mexico.
    Observer F. B. Zoltowski. 0.16-m refractor + CCD0.51-m Schmidt-Cassegrain
   + CCD.
(F51) Pan-STARRS 1, Haleakala  (N20.707234 W156.255910)  US/Hawaii.
   Observers J. Bulger, T. Lowe, A. Schultz, M. Willman. Measurers K.
   Chambers, S. Chastel, T. de Boer, L. Denneau, J. Fairlamb, H. Flewelling,
   M. Huber, C.-C. Lin, E. Magnier, Y. Ramanjooloo, R. Wainscoat, R. Weryk.
   1.8-m Ritchey-Chrétien + CCD.
(F52) Pan-STARRS 2, Haleakala  (N20.707382 W156.255910)  US/Hawaii.
   Observers J. Bulger, T. Dukes, T. Lowe, A. Schultz, M. Willman. Measurers
   K. Chambers, S. Chastel, T. de Boer, L. Denneau, J. Fairlamb, H.
   Flewelling, M. Huber, C.-C. Lin, E. Magnier, Y. Ramanjooloo, R. Wainscoat,
   R. Weryk. 1.8-m Ritchey-Chrétien + CCD.
(G96) Mt. Lemmon Survey  (N32.442729 W110.788720)  US/Arizona.  Observer E.
   J. Christensen. 1.5-m reflector + 4K CCD + 10K CCD.
(H21) Astronomical Research Observatory, Westfield  (N39.483054 W87.968270)
   US/Illinois.  Observer R. Holmes. Measurers S. Foglia, L. Buzzi, T.
   Linder, R. Holmes. 0.76-m f/3.0 astrograph + CCD0.81-m f/4.0 astrograph +
   CCD0.61-m f/4.5 astrograph + CCD0.40-m f/5.32 astrograph + CCD.
(M45) Starhopper Observatory, Sfantu Gheorghe  (N45.865494 E25.768890)
   Romania.  Observer F. Ursache. 0.41-m f/7.5 reflector + CMO.
(U94) iTelescope Observatory, Beryl Junction  (N37.737780 W113.697500)
   US/Utah.  Observer H. Sato. 0.51-m f/4.5 Corrected Dall-Kirkham +
   CCD0.51-m f/6.8 astrograph + f/4.5 focal reducer + CCD.
(W16) Pleasant Groves Observatory  (N34.711888 W86.231310)  US/Alabama.
   Observer M. Holbrook. 0.36-m reflector + CCD.
(W84) Cerro Tololo-DECam  (S30.169594 W70.806420)  Chile.  Observer L. Allen.
   Measurer S. Deen. 4.0-m reflector + CCD.

Orbital elements:  MHO07B4
   Perihelion 2024 Aug 6.48702 +/- 0.000132 TT = 11:41:18 (JD 2460528.98702)
Epoch 2024 Oct 10.0 TT = JDT 2460593.5                           AutoNEOCP
M  15.06911710 +/- 0.000030         (J2000 ecliptic)
n   0.23358272 +/- 6.38e-9          Peri.    4.95597 +/- 0.000037
a   2.61121258 +/- 4.76e-8          Node    24.52413 +/- 0.000020
e   0.2260331 +/- 2.35e-7           Incl.   35.04647 +/- 0.000017
P   4.21952                H 17.29  G  0.15   U  0.2
q 2.02099204 +/- 5.83e-7    Q 3.20143312 +/- 6.63e-7
47 of 48 observations 2009 Mar. 18-2024 Oct. 10; mean residual 0".33
Residuals in arcseconds: 
090318 G96  .40+  .31+    140502 W84  .04+  .09+    241008 W16  .35-  .67-    
090318 G96  .08+  .24+    210105 F51  .08+  .02-    241008 W16  .24+  .52-    
090318 G96  .02-  .38+    210105 F51  .00   .24-    241008 M45  .81-  .30+    
090318 G96  .42+  .19-    210105 F51  .04+  .08+    241008 M45  .57-  .38+    
110919 F51  .10-  .05-    220225 F52  .10+  .09+    241008 M45  .64-  .26+    
110919 F51  .13-  .10-    220225 F52  .17+  .24+    241009 W16( 2.1-  1.5+)   
110919 F51  .07-  .16+    220225 F52  .05+  .01-    241009 W16  1.5-  .54+    
110919 F51  .10-  .22+    220225 F52  .17+  .10+    241009 W16  .03+  .42+    
140429 W84  .11+  .00     240905 G96  .19+  .16+    241009 858  .14+  .04+    
140429 W84  .33+  .14+    240905 G96  .05+  .00     241009 858  .30+  .61+    
140429 W84  .17+  .08+    240905 G96  .71-  .25+    241009 858  .37-  .20-    
140429 W84  .12+  .03+    240927 G96  .14+  .18+    241009 H21  .22+  .07-    
140429 W84  .12+  .07+    240927 G96  .28+  .64-    241009 H21  .19+  .04+    
140502 W84  .15+  .15+    240927 G96  .12+  .32-    241009 H21  .36+  .35+    
140502 W84  .10+  .12+    241008 W16  .16+  .19-    241010 U94  .27-  .28+    
140502 W84  .06-  .06+    241008 W16  .67+  .69+    241010 U94  .24+  .21-    

Ephemerides (geocentric):
Date (UTC) HH   RA             Dec           delta  r     elong  mag " sig PA
---- --------  ------------   ------------  ------ ------ -----  --- --------
2024 11 17 04  03 40 01.434   +61 26 33.69  1.2650 2.1030 137.5 20.4 .085  65
2024 11 17 05  03 39 54.565   +61 27 06.70  1.2651 2.1031 137.5 20.4 .085  65
2024 11 17 06  03 39 47.691   +61 27 39.63  1.2651 2.1032 137.5 20.4 .085  65
2024 11 17 07  03 39 40.814   +61 28 12.49  1.2652 2.1032 137.5 20.4 .085  65
2024 11 17 08  03 39 33.933   +61 28 45.27  1.2653 2.1033 137.5 20.4 .085  65
2024 11 17 09  03 39 27.048   +61 29 17.97  1.2653 2.1033 137.5 20.4 .085  65
2024 11 17 10  03 39 20.159   +61 29 50.60  1.2654 2.1034 137.5 20.4 .085  65
2024 11 17 11  03 39 13.266   +61 30 23.15  1.2654 2.1035 137.5 20.4 .085  65
2024 11 17 12  03 39 06.370   +61 30 55.63  1.2655 2.1035 137.5 20.4 .085  65
2024 11 17 13  03 38 59.470   +61 31 28.03  1.2655 2.1036 137.6 20.4 .085  65
2024 11 17 14  03 38 52.566   +61 32 00.35  1.2656 2.1037 137.6 20.4 .085  65
2024 11 17 15  03 38 45.658   +61 32 32.60  1.2656 2.1037 137.6 20.4 .085  65
2024 11 17 16  03 38 38.747   +61 33 04.77  1.2657 2.1038 137.6 20.4 .085  65
2024 11 17 17  03 38 31.832   +61 33 36.87  1.2658 2.1039 137.6 20.4 .085  65
2024 11 17 18  03 38 24.914   +61 34 08.89  1.2658 2.1039 137.6 20.4 .085  65
2024 11 17 19  03 38 17.992   +61 34 40.83  1.2659 2.1040 137.6 20.4 .085  65
2024 11 17 20  03 38 11.066   +61 35 12.69  1.2659 2.1040 137.6 20.4 .085  65
2024 11 17 21  03 38 04.137   +61 35 44.48  1.2660 2.1041 137.6 20.4 .085  65
2024 11 17 22  03 37 57.205   +61 36 16.20  1.2661 2.1042 137.6 20.4 .085  65
2024 11 17 23  03 37 50.268   +61 36 47.83  1.2661 2.1042 137.6 20.4 .085  65
2024 11 18 00  03 37 43.329   +61 37 19.39  1.2662 2.1043 137.6 20.4 .085  65
2024 11 18 01  03 37 36.386   +61 37 50.88  1.2662 2.1044 137.6 20.4 .085  65
2024 11 18 02  03 37 29.439   +61 38 22.28  1.2663 2.1044 137.6 20.4 .085  65
2024 11 18 03  03 37 22.489   +61 38 53.61  1.2664 2.1045 137.6 20.4 .085  65
2024 11 18 04  03 37 15.536   +61 39 24.87  1.2664 2.1046 137.6 20.4 .085  65
2024 11 18 05  03 37 08.579   +61 39 56.05  1.2665 2.1046 137.6 20.4 .085  65
2024 11 18 06  03 37 01.619   +61 40 27.15  1.2665 2.1047 137.6 20.4 .085  65
2024 11 18 07  03 36 54.655   +61 40 58.17  1.2666 2.1047 137.6 20.4 .085  65
2024 11 18 08  03 36 47.688   +61 41 29.12  1.2667 2.1048 137.6 20.4 .085  65
2024 11 18 09  03 36 40.718   +61 41 59.99  1.2667 2.1049 137.6 20.4 .085  65
2024 11 18 10  03 36 33.745   +61 42 30.78  1.2668 2.1049 137.6 20.4 .085  65
2024 11 18 11  03 36 26.769   +61 43 01.50  1.2669 2.1050 137.6 20.4 .085  65
2024 11 18 12  03 36 19.789   +61 43 32.13  1.2669 2.1051 137.6 20.4 .085  65
2024 11 18 13  03 36 12.806   +61 44 02.70  1.2670 2.1051 137.6 20.4 .085  65
2024 11 18 14  03 36 05.820   +61 44 33.18  1.2671 2.1052 137.6 20.4 .085  65
2024 11 18 15  03 35 58.831   +61 45 03.59  1.2671 2.1053 137.6 20.4 .085  64
2024 11 18 16  03 35 51.838   +61 45 33.92  1.2672 2.1053 137.6 20.4 .085  64
2024 11 18 17  03 35 44.843   +61 46 04.18  1.2673 2.1054 137.6 20.4 .085  64
2024 11 18 18  03 35 37.845   +61 46 34.36  1.2673 2.1055 137.6 20.4 .085  64
2024 11 18 19  03 35 30.843   +61 47 04.46  1.2674 2.1055 137.6 20.4 .085  64
2024 11 18 20  03 35 23.838   +61 47 34.48  1.2675 2.1056 137.6 20.4 .085  64
2024 11 18 21  03 35 16.831   +61 48 04.43  1.2675 2.1056 137.6 20.4 .085  64
2024 11 18 22  03 35 09.820   +61 48 34.30  1.2676 2.1057 137.6 20.4 .085  64
2024 11 18 23  03 35 02.807   +61 49 04.09  1.2677 2.1058 137.6 20.4 .085  64
2024 11 19 00  03 34 55.791   +61 49 33.80  1.2677 2.1058 137.6 20.4 .085  64
2024 11 19 01  03 34 48.771   +61 50 03.44  1.2678 2.1059 137.6 20.4 .085  64
2024 11 19 02  03 34 41.749   +61 50 33.00  1.2679 2.1060 137.6 20.4 .085  64
2024 11 19 03  03 34 34.724   +61 51 02.48  1.2680 2.1060 137.6 20.4 .085  64